OVM YKII-YMML

Flight info

Callsign OVM
Flight time 0h 51m
Altitude 9000
Route KII DCT WMS
Aircraft DC3/M-SDF/S

Departure

Time 2026-04-16 02:20
Airport King Island Airport (YKII)

Arrival

Time 2026-04-16 03:12
Airport Melbourne Airport (YMML)
Time Latitude Longitude Altitude Speed Heading
2026-04-16 02:10 -39.87905 143.88144 129 ft 0 kts 86°
2026-04-16 02:17 -39.87905 143.88145 128 ft 2 kts 86°
2026-04-16 02:17 -39.87914 143.88245 125 ft 9 kts 69°
2026-04-16 02:18 -39.87842 143.88290 120 ft 13 kts 21°
2026-04-16 02:18 -39.87816 143.88429 116 ft 21 kts 120°
2026-04-16 02:18 -39.87892 143.88629 116 ft 18 kts 113°
2026-04-16 02:18 -39.87915 143.88692 115 ft 0 kts 287°
2026-04-16 02:19 -39.87894 143.88619 116 ft 30 kts 296°
2026-04-16 02:19 -39.87734 143.88159 122 ft 77 kts 295°
2026-04-16 02:19 -39.87481 143.87485 263 ft 85 kts 298°
2026-04-16 02:20 -39.87193 143.86870 669 ft 73 kts 304°
2026-04-16 02:20 -39.86937 143.86523 939 ft 72 kts 314°
2026-04-16 02:20 -39.86410 143.86310 1134 ft 91 kts 347°
2026-04-16 02:20 -39.85763 143.86575 1427 ft 106 kts 12°
2026-04-16 02:21 -39.85109 143.87050 1689 ft 108 kts 10°
2026-04-16 02:21 -39.84467 143.87549 1998 ft 108 kts 12°
2026-04-16 02:21 -39.83837 143.88176 2205 ft 123 kts 23°
2026-04-16 02:21 -39.83232 143.89008 2484 ft 128 kts 33°
2026-04-16 02:22 -39.82695 143.89909 2758 ft 127 kts 34°
2026-04-16 02:22 -39.82084 143.90721 2972 ft 121 kts 15°
2026-04-16 02:22 -39.81381 143.91225 3245 ft 111 kts
2026-04-16 02:22 -39.80697 143.91608 3513 ft 104 kts 352°
2026-04-16 02:23 -39.80013 143.91971 3762 ft 117 kts 15°
2026-04-16 02:23 -39.79353 143.92601 4019 ft 112 kts
2026-04-16 02:23 -39.78597 143.93012 4047 ft 123 kts 356°
2026-04-16 02:23 -39.77754 143.93489 4171 ft 137 kts
2026-04-16 02:24 -39.76882 143.94031 4254 ft 146 kts 11°
2026-04-16 02:24 -39.75908 143.94661 4058 ft 165 kts
2026-04-16 02:24 -39.74812 143.95296 3782 ft 182 kts
2026-04-16 02:24 -39.73612 143.95962 3517 ft 191 kts 10°
2026-04-16 02:25 -39.72412 143.96616 3511 ft 181 kts
2026-04-16 02:25 -39.71269 143.97227 3528 ft 175 kts
2026-04-16 02:25 -39.70147 143.97819 3532 ft 171 kts
2026-04-16 02:25 -39.69035 143.98402 3534 ft 170 kts
2026-04-16 02:26 -39.67945 143.98973 3534 ft 168 kts
2026-04-16 02:26 -39.66860 143.99542 3533 ft 168 kts
2026-04-16 02:26 -39.65783 144.00107 3534 ft 167 kts
2026-04-16 02:26 -39.64708 144.00671 3536 ft 167 kts
2026-04-16 02:27 -39.63621 144.01241 3534 ft 166 kts
2026-04-16 02:27 -39.62546 144.01802 3532 ft 167 kts
2026-04-16 02:27 -39.61467 144.02370 3530 ft 166 kts
2026-04-16 02:27 -39.60394 144.02930 3536 ft 166 kts
2026-04-16 02:28 -39.59317 144.03491 3537 ft 167 kts
2026-04-16 02:28 -39.58233 144.04059 3538 ft 167 kts
2026-04-16 02:28 -39.57156 144.04622 3540 ft 167 kts
2026-04-16 02:28 -39.56075 144.05188 3537 ft 168 kts
2026-04-16 02:29 -39.54993 144.05754 3535 ft 168 kts
2026-04-16 02:29 -39.53905 144.06322 3538 ft 167 kts
2026-04-16 02:29 -39.52825 144.06886 3541 ft 167 kts
2026-04-16 02:29 -39.51746 144.07449 3539 ft 168 kts
2026-04-16 02:30 -39.50655 144.08019 3541 ft 167 kts
2026-04-16 02:30 -39.49578 144.08581 3544 ft 167 kts
2026-04-16 02:30 -39.48498 144.09146 3542 ft 168 kts
2026-04-16 02:30 -39.47411 144.09712 3541 ft 168 kts
2026-04-16 02:31 -39.46327 144.10277 3541 ft 168 kts
2026-04-16 02:31 -39.45233 144.10847 3542 ft 168 kts
2026-04-16 02:31 -39.44152 144.11414 3546 ft 168 kts
2026-04-16 02:31 -39.43076 144.11983 3548 ft 168 kts
2026-04-16 02:32 -39.41989 144.12573 3550 ft 168 kts
2026-04-16 02:32 -39.40910 144.13164 3551 ft 168 kts
2026-04-16 02:32 -39.39834 144.13744 3550 ft 167 kts
2026-04-16 02:32 -39.38754 144.14319 3553 ft 167 kts
2026-04-16 02:33 -39.37688 144.14882 3557 ft 166 kts
2026-04-16 02:33 -39.36616 144.15446 3557 ft 166 kts
2026-04-16 02:33 -39.35531 144.16016 3559 ft 166 kts
2026-04-16 02:33 -39.34470 144.16568 3557 ft 166 kts
2026-04-16 02:34 -39.33384 144.17134 3556 ft 166 kts
2026-04-16 02:34 -39.32310 144.17694 3556 ft 167 kts
2026-04-16 02:34 -39.31235 144.18254 3589 ft 165 kts
2026-04-16 02:34 -39.30181 144.18803 3683 ft 163 kts
2026-04-16 02:35 -39.29122 144.19353 3774 ft 162 kts
2026-04-16 02:35 -39.28083 144.19893 3861 ft 161 kts
2026-04-16 02:35 -39.27035 144.20435 3945 ft 161 kts
2026-04-16 02:35 -39.26002 144.20972 4029 ft 161 kts
2026-04-16 02:36 -39.24960 144.21510 4112 ft 160 kts
2026-04-16 02:36 -39.23922 144.22049 4194 ft 160 kts
2026-04-16 02:36 -39.22886 144.22584 4274 ft 160 kts
2026-04-16 02:36 -39.21839 144.23126 4352 ft 160 kts
2026-04-16 02:37 -39.20806 144.23660 4474 ft 157 kts
2026-04-16 02:37 -39.19803 144.24185 4634 ft 153 kts
2026-04-16 02:37 -39.18819 144.24695 4781 ft 151 kts
2026-04-16 02:37 -39.17845 144.25197 4921 ft 150 kts
2026-04-16 02:38 -39.16879 144.25694 5054 ft 149 kts
2026-04-16 02:38 -39.15907 144.26196 5185 ft 149 kts
2026-04-16 02:38 -39.14948 144.26689 5312 ft 149 kts
2026-04-16 02:38 -39.13983 144.27188 5437 ft 149 kts
2026-04-16 02:39 -39.13011 144.27689 5562 ft 149 kts
2026-04-16 02:39 -39.12041 144.28189 5685 ft 150 kts
2026-04-16 02:39 -39.11079 144.28685 5806 ft 150 kts
2026-04-16 02:39 -39.10109 144.29185 5926 ft 150 kts
2026-04-16 02:40 -39.09137 144.29688 6046 ft 150 kts
2026-04-16 02:40 -39.08165 144.30188 6166 ft 150 kts
2026-04-16 02:40 -39.07196 144.30685 6283 ft 150 kts
2026-04-16 02:40 -39.06214 144.31192 6402 ft 151 kts
2026-04-16 02:41 -39.05240 144.31694 6520 ft 151 kts
2026-04-16 02:41 -39.04274 144.32193 6637 ft 151 kts
2026-04-16 02:41 -39.03286 144.32701 6754 ft 151 kts
2026-04-16 02:41 -39.02322 144.33197 6868 ft 151 kts
2026-04-16 02:42 -39.01331 144.33707 6982 ft 152 kts
2026-04-16 02:42 -39.00344 144.34212 7109 ft 155 kts
2026-04-16 02:42 -38.99336 144.34729 7247 ft 157 kts
2026-04-16 02:42 -38.98322 144.35251 7381 ft 157 kts
2026-04-16 02:43 -38.97297 144.35777 7525 ft 158 kts
2026-04-16 02:43 -38.96267 144.36310 7664 ft 159 kts
2026-04-16 02:43 -38.95236 144.36839 7802 ft 159 kts
2026-04-16 02:43 -38.94208 144.37367 7945 ft 159 kts
2026-04-16 02:44 -38.93177 144.37897 8084 ft 159 kts
2026-04-16 02:44 -38.92146 144.38425 8217 ft 160 kts
2026-04-16 02:44 -38.91117 144.38956 8360 ft 159 kts
2026-04-16 02:44 -38.90083 144.39485 8496 ft 160 kts
2026-04-16 02:45 -38.89053 144.40010 8630 ft 160 kts
2026-04-16 02:45 -38.88018 144.40543 8767 ft 160 kts
2026-04-16 02:45 -38.86985 144.41071 8905 ft 160 kts
2026-04-16 02:45 -38.85954 144.41600 9046 ft 160 kts
2026-04-16 02:46 -38.84917 144.42131 9192 ft 160 kts
2026-04-16 02:46 -38.83880 144.42662 9327 ft 160 kts
2026-04-16 02:46 -38.82840 144.43192 9455 ft 160 kts
2026-04-16 02:46 -38.81797 144.43726 9588 ft 160 kts
2026-04-16 02:47 -38.80757 144.44258 9716 ft 160 kts
2026-04-16 02:47 -38.79726 144.44785 9832 ft 161 kts
2026-04-16 02:47 -38.78677 144.45320 9960 ft 161 kts
2026-04-16 02:47 -38.77640 144.45848 10087 ft 161 kts
2026-04-16 02:48 -38.76603 144.46379 10217 ft 161 kts
2026-04-16 02:48 -38.75548 144.46918 10315 ft 163 kts
2026-04-16 02:48 -38.74446 144.47469 10225 ft 176 kts
2026-04-16 02:48 -38.73281 144.48056 10098 ft 187 kts
2026-04-16 02:49 -38.72013 144.48700 9903 ft 198 kts
2026-04-16 02:49 -38.70723 144.49359 9719 ft 204 kts
2026-04-16 02:49 -38.69378 144.50049 9536 ft 207 kts
2026-04-16 02:49 -38.68059 144.50728 9578 ft 200 kts
2026-04-16 02:50 -38.66781 144.51387 9574 ft 198 kts
2026-04-16 02:50 -38.65509 144.52034 9572 ft 195 kts
2026-04-16 02:50 -38.64251 144.52678 9578 ft 193 kts
2026-04-16 02:50 -38.63006 144.53310 9573 ft 192 kts
2026-04-16 02:51 -38.61759 144.53943 9575 ft 191 kts
2026-04-16 02:51 -38.60532 144.54552 9570 ft 187 kts
2026-04-16 02:51 -38.59296 144.55058 9574 ft 186 kts
2026-04-16 02:51 -38.58058 144.55606 9577 ft 188 kts
2026-04-16 02:52 -38.56835 144.56178 9579 ft 188 kts
2026-04-16 02:52 -38.55611 144.56766 9578 ft 188 kts
2026-04-16 02:52 -38.54377 144.57371 9576 ft 188 kts
2026-04-16 02:52 -38.53165 144.57976 9582 ft 188 kts
2026-04-16 02:53 -38.51929 144.58594 9574 ft 189 kts
2026-04-16 02:53 -38.50717 144.59203 9578 ft 189 kts
2026-04-16 02:53 -38.49488 144.59822 9577 ft 189 kts
2026-04-16 02:53 -38.48266 144.60440 9570 ft 189 kts
2026-04-16 02:54 -38.47038 144.61060 9581 ft 189 kts
2026-04-16 02:54 -38.45821 144.61675 9579 ft 188 kts
2026-04-16 02:54 -38.44595 144.62294 9590 ft 189 kts
2026-04-16 02:54 -38.43363 144.62917 9585 ft 189 kts
2026-04-16 02:55 -38.42137 144.63536 9584 ft 190 kts
2026-04-16 02:55 -38.40902 144.64159 9583 ft 189 kts
2026-04-16 02:55 -38.39690 144.64772 9582 ft 189 kts
2026-04-16 02:55 -38.38452 144.65398 9577 ft 189 kts
2026-04-16 02:56 -38.37237 144.66010 9568 ft 188 kts
2026-04-16 02:56 -38.36014 144.66628 9568 ft 187 kts
2026-04-16 02:56 -38.34809 144.67236 9567 ft 186 kts
2026-04-16 02:56 -38.33597 144.67845 9572 ft 186 kts
2026-04-16 02:57 -38.32387 144.68457 9577 ft 186 kts
2026-04-16 02:57 -38.31179 144.69064 9577 ft 186 kts
2026-04-16 02:57 -38.29968 144.69672 9581 ft 186 kts
2026-04-16 02:57 -38.28765 144.70279 9579 ft 186 kts
2026-04-16 02:58 -38.27568 144.70882 9580 ft 186 kts
2026-04-16 02:58 -38.26346 144.71493 9578 ft 186 kts
2026-04-16 02:58 -38.25147 144.72098 9574 ft 186 kts
2026-04-16 02:58 -38.23940 144.72707 9581 ft 185 kts
2026-04-16 02:59 -38.22740 144.73305 9583 ft 185 kts
2026-04-16 02:59 -38.21544 144.73908 9580 ft 185 kts
2026-04-16 02:59 -38.20341 144.74512 9582 ft 185 kts
2026-04-16 02:59 -38.19137 144.75114 9590 ft 185 kts
2026-04-16 03:00 -38.17935 144.75719 9592 ft 186 kts
2026-04-16 03:00 -38.16724 144.76326 9592 ft 186 kts
2026-04-16 03:00 -38.15525 144.76930 9593 ft 187 kts
2026-04-16 03:00 -38.14303 144.77544 9482 ft 193 kts
2026-04-16 03:01 -38.12989 144.78194 9086 ft 210 kts
2026-04-16 03:01 -38.11606 144.78900 8732 ft 219 kts 12°
2026-04-16 03:01 -38.10191 144.79652 8486 ft 218 kts 11°
2026-04-16 03:01 -38.08808 144.80359 8403 ft 212 kts 11°
2026-04-16 03:02 -38.07459 144.81113 8265 ft 210 kts 12°
2026-04-16 03:02 -38.06092 144.81821 8006 ft 212 kts 11°
2026-04-16 03:02 -38.04703 144.82474 7759 ft 212 kts
2026-04-16 03:02 -38.03333 144.83069 7598 ft 205 kts
2026-04-16 03:03 -38.01953 144.83409 7434 ft 199 kts 357°
2026-04-16 03:03 -38.00575 144.83627 7243 ft 199 kts 358°
2026-04-16 03:03 -37.99207 144.83946 7043 ft 202 kts
2026-04-16 03:03 -37.97841 144.84422 6843 ft 203 kts
2026-04-16 03:04 -37.96498 144.84966 6691 ft 202 kts
2026-04-16 03:04 -37.95173 144.85614 6530 ft 204 kts 14°
2026-04-16 03:04 -37.93888 144.86401 6351 ft 206 kts 17°
2026-04-16 03:04 -37.92582 144.87169 6199 ft 203 kts 15°
2026-04-16 03:05 -37.91274 144.87808 6054 ft 198 kts
2026-04-16 03:05 -37.89955 144.88159 5863 ft 193 kts 357°
2026-04-16 03:05 -37.88605 144.88321 5680 ft 191 kts 354°
2026-04-16 03:05 -37.87295 144.88321 5540 ft 186 kts 349°
2026-04-16 03:06 -37.86026 144.88152 5259 ft 182 kts 342°
2026-04-16 03:06 -37.84771 144.87822 4815 ft 185 kts 341°
2026-04-16 03:06 -37.82379 144.87199 4144 ft 159 kts 341°
2026-04-16 03:07 -37.81382 144.86946 3850 ft 133 kts 341°
2026-04-16 03:07 -37.80492 144.86743 3472 ft 133 kts 342°
2026-04-16 03:07 -37.79598 144.86540 3155 ft 129 kts 341°
2026-04-16 03:07 -37.78742 144.86356 2913 ft 119 kts 346°
2026-04-16 03:08 -37.77934 144.86264 2585 ft 115 kts 344°
2026-04-16 03:08 -37.77188 144.86072 2350 ft 106 kts 342°
2026-04-16 03:08 -37.76452 144.85892 2157 ft 108 kts 343°
2026-04-16 03:08 -37.75713 144.85712 2007 ft 110 kts 342°
2026-04-16 03:09 -37.74950 144.85529 1876 ft 111 kts 342°
2026-04-16 03:09 -37.74207 144.85332 1800 ft 107 kts 342°
2026-04-16 03:09 -37.73503 144.85130 1561 ft 102 kts 341°
2026-04-16 03:09 -37.72829 144.84932 1308 ft 99 kts 344°
2026-04-16 03:10 -37.72165 144.84802 1086 ft 92 kts 348°
2026-04-16 03:10 -37.71562 144.84743 943 ft 81 kts 347°
2026-04-16 03:10 -37.71019 144.84657 822 ft 75 kts 346°
2026-04-16 03:10 -37.70505 144.84526 720 ft 76 kts 344°
2026-04-16 03:11 -37.69984 144.84380 657 ft 77 kts 344°
2026-04-16 03:11 -37.69449 144.84271 578 ft 78 kts 348°
2026-04-16 03:11 -37.68893 144.84177 445 ft 81 kts 348°
2026-04-16 03:11 -37.68384 144.84073 358 ft 64 kts 349°
2026-04-16 03:12 -37.68029 144.83993 358 ft 35 kts 358°
2026-04-16 03:12 -37.67893 144.84053 362 ft 12 kts 70°
2026-04-16 03:12 -37.67875 144.84129 364 ft 0 kts 75°
2026-04-16 03:13 -37.67873 144.84140 364 ft 3 kts 71°
2026-04-16 03:13 -37.67862 144.84181 365 ft 6 kts 76°
2026-04-16 03:13 -37.67852 144.84262 366 ft 14 kts 86°
2026-04-16 03:13 -37.67930 144.84404 364 ft 28 kts 162°
2026-04-16 03:14 -37.68105 144.84438 357 ft 25 kts 170°
2026-04-16 03:14 -37.68294 144.84480 348 ft 29 kts 169°
2026-04-16 03:14 -37.68390 144.84657 346 ft 24 kts 98°
2026-04-16 03:14 -37.68404 144.84863 347 ft 24 kts 91°
2026-04-16 03:15 -37.68415 144.85089 350 ft 25 kts 96°
2026-04-16 03:15 -37.68487 144.85271 349 ft 23 kts 130°
2026-04-16 03:15 -37.68621 144.85353 348 ft 20 kts 169°
2026-04-16 03:15 -37.68741 144.85373 346 ft 10 kts 120°
2026-04-16 03:16 -37.68740 144.85406 346 ft 0 kts 276°